[[{"header":{"parameterUnit":"m.s-1","parameterCategory":1,"la1":30.2992,"la2":30.254,"lo1":-89.0895,"lo2":-89.0443,"dy":0.0025,"dx":0.0025,"nx":19,"ny":19,"refTime":"2026-05-15T03:00:00:Z","depth":0,"parameterNumber":2,"parameterNumberName":"U-component_of_WINDS"},"data":[0,0,0,-2.5065,-2.5065,-2.5055,-2.5055,-2.5053,-2.5053,0,0,0,0,0,0,0,0,0,0,0,-2.5074,-2.5074,-2.5065,-2.5065,-2.5055,-2.5055,-2.5053,-2.5053,0,0,0,0,0,0,0,0,0,0,0,-2.5073,-2.5074,-2.5074,-2.5065,-2.5055,-2.5055,-2.5053,-2.5057,0,0,0,0,0,0,0,0,0,0,-2.5064,-2.5078,-2.5074,-2.5074,-2.5065,-2.5055,-2.5055,-2.5057,-2.5056,-2.5061,0,-2.5068,0,-2.506,-2.5054,-2.5054,0,0,0,-2.506,-2.5078,-2.507,-2.5074,-2.5065,-2.5055,-2.5058,-2.5056,-2.5056,-2.5061,-2.5068,-2.5067,-2.506,-2.5054,-2.5054,-2.5098,-2.5098,0,0,-2.5061,-2.5075,-2.5071,-2.507,-2.5072,-2.5059,-2.5058,-2.5056,-2.5064,-2.5068,-2.5067,-2.506,-2.5054,-2.5054,-2.5097,-2.5098,0,0,0,-2.5065,-2.5076,-2.5067,-2.5071,-2.5068,-2.5058,-2.5058,-2.5064,-2.506,-2.5067,-2.506,-2.5054,-2.5054,-2.5097,-2.5098,-2.5131,0,0,0,-2.5065,-2.5078,-2.5068,-2.5077,-2.5069,-2.5066,-2.5066,-2.506,-2.5059,-2.506,-2.5054,-2.5054,-2.5096,-2.5097,-2.5129,-2.5145,0,0,0,-2.5072,-2.5079,-2.508,-2.5077,-2.5074,-2.5066,-2.5062,-2.506,-2.5056,-2.5054,-2.5054,-2.5096,-2.5097,-2.5128,-2.5142,-2.5159,0,0,0,-2.5084,-2.511,-2.508,-2.5108,-2.5074,-2.5087,-2.5061,-2.507,-2.5073,-2.5054,-2.5097,-2.5098,-2.5127,-2.514,-2.5158,-2.5176,-2.5186,0,0,-2.5125,-2.5116,-2.5131,-2.5104,-2.5126,-2.5087,-2.5114,-2.5103,-2.509,-2.5096,-2.5097,-2.513,-2.5141,-2.5159,-2.5235,-2.5243,0,0,0,-2.5149,-2.516,-2.5163,-2.5165,-2.5157,-2.5151,-2.5134,-2.513,-2.5134,-2.5096,-2.5141,-2.5148,-2.5158,-2.5166,-2.5172,-2.5179,-2.5102,-2.5102,-2.5102,-2.5228,-2.521,-2.5233,-2.5214,-2.5217,-2.5199,-2.5199,-2.519,-2.5171,-2.5182,-2.5184,-2.5232,-2.5242,-2.5247,-2.5254,-2.5193,-2.5193,-2.5193,-2.5193,-2.5287,-2.5299,-2.5273,-2.5286,-2.5266,-2.5277,-2.5261,-2.5247,-2.5254,-2.523,-2.5237,-2.5212,-2.5256,-2.5261,-2.5196,-2.5195,-2.5195,-2.5195,-2.5195,-2.5336,-2.5338,-2.5333,-2.5334,-2.5337,-2.5317,-2.5325,-2.5307,-2.529,-2.5298,-2.5297,-2.5296,-2.5292,-2.5299,-2.5299,-2.5299,-2.5299,-2.5299,-2.5299,-2.5388,-2.5381,-2.5389,-2.5383,-2.5382,-2.5378,-2.5361,-2.5359,-2.5353,-2.5339,-2.5339,-2.5318,-2.5264,-2.525,-2.5302,-2.5301,-2.5301,-2.5301,-2.5301,-2.5453,-2.5435,-2.5448,-2.5447,-2.5438,-2.5442,-2.5419,-2.5418,-2.5414,-2.5418,-2.5396,-2.5359,-2.5348,-2.5343,-2.5331,-2.5401,-2.5401,-2.5401,-2.5401,-2.5493,-2.5486,-2.5495,-2.5494,-2.5492,-2.5473,-2.5487,-2.5474,-2.5457,-2.5454,-2.5441,-2.5425,-2.542,-2.5412,-2.5405,-2.5393,-2.5478,-2.5478,-2.5478,-2.5531,-2.5523,-2.5539,-2.5522,-2.5513,-2.5506,-2.5519,-2.552,-2.5497,-2.548,-2.545,-2.5447,-2.542,-2.5412,-2.5394,-2.5384,-2.5362,0,0]},{"header":{"parameterUnit":"m.s-1","parameterCategory":1,"la1":30.2992,"la2":30.254,"lo1":-89.0895,"lo2":-89.0443,"dy":0.0025,"dx":0.0025,"nx":19,"ny":19,"refTime":"2026-05-15T03:00:00:Z","depth":0,"parameterNumber":3,"parameterNumberName":"V-component_of_WINDS"},"data":[0,0,0,3.7705,3.7706,3.7732,3.7732,3.777,3.777,0,0,0,0,0,0,0,0,0,0,0,3.7701,3.7701,3.7705,3.7706,3.7732,3.7732,3.777,3.777,0,0,0,0,0,0,0,0,0,0,0,3.7701,3.7701,3.7702,3.7706,3.7732,3.7732,3.777,3.7748,0,0,0,0,0,0,0,0,0,0,3.7722,3.7722,3.7701,3.7702,3.7706,3.7732,3.7732,3.7747,3.775,3.7761,0,3.7772,0,3.7772,3.7773,3.7774,0,0,0,3.7703,3.772,3.7724,3.7702,3.7706,3.7732,3.7719,3.7748,3.7751,3.7764,3.7772,3.7774,3.7773,3.7774,3.7774,3.7849,3.7849,0,0,3.7701,3.7707,3.7722,3.7726,3.7723,3.7718,3.772,3.775,3.776,3.7773,3.7774,3.7773,3.7774,3.7774,3.7848,3.7849,0,0,0,3.7699,3.7706,3.7709,3.7724,3.7729,3.7719,3.7721,3.7758,3.7759,3.7775,3.7774,3.7774,3.7775,3.7848,3.7848,3.7879,0,0,0,3.7698,3.7705,3.7709,3.7713,3.7728,3.7744,3.7729,3.7757,3.776,3.7773,3.7774,3.7775,3.7847,3.7848,3.7877,3.7892,0,0,0,3.7698,3.7705,3.771,3.7713,3.7725,3.7743,3.7746,3.7757,3.7759,3.7774,3.7775,3.7847,3.7848,3.7875,3.7889,3.7913,0,0,0,3.7699,3.7737,3.7711,3.7752,3.7725,3.7762,3.7745,3.7773,3.7789,3.7774,3.7847,3.7848,3.7874,3.7887,3.7911,3.7934,3.7945,0,0,3.775,3.7743,3.7767,3.7744,3.7788,3.7758,3.7806,3.7814,3.7809,3.7836,3.7837,3.7877,3.7888,3.7912,3.8001,3.8009,0,0,0,3.7785,3.7802,3.7812,3.7828,3.7836,3.7843,3.7844,3.7847,3.7869,3.7824,3.7892,3.7899,3.7913,3.7923,3.7931,3.7942,3.7854,3.7853,3.7853,3.7865,3.7857,3.7896,3.7892,3.7907,3.7908,3.7919,3.7923,3.7911,3.7927,3.7935,3.799,3.8002,3.8008,3.802,3.7947,3.7947,3.7947,3.7947,3.7938,3.796,3.7944,3.7975,3.7967,3.7993,3.7994,3.7985,3.8007,3.7983,3.7995,3.7969,3.8017,3.8027,3.7949,3.7949,3.7949,3.7948,3.7948,3.7989,3.7998,3.8002,3.8024,3.8042,3.8036,3.8059,3.805,3.8042,3.8054,3.8061,3.806,3.8058,3.8058,3.8058,3.8058,3.8059,3.8059,3.8059,3.804,3.8044,3.8064,3.8076,3.8085,3.8095,3.8096,3.8104,3.8111,3.8103,3.8103,3.8089,3.8023,3.8007,3.8062,3.8061,3.8061,3.8061,3.806,3.8117,3.8098,3.813,3.8139,3.8151,3.8169,3.8159,3.8176,3.8182,3.8193,3.8177,3.813,3.8122,3.8116,3.8102,3.8179,3.8179,3.8179,3.8179,3.816,3.8155,3.8185,3.82,3.8214,3.8207,3.8243,3.8243,3.8241,3.8244,3.8232,3.8213,3.8208,3.8203,3.8195,3.8182,3.8277,3.8277,3.8277,3.8206,3.8202,3.8234,3.8232,3.8242,3.825,3.8282,3.83,3.8293,3.8281,3.8246,3.8242,3.8211,3.8202,3.8189,3.8177,3.8153,0,0]}]]